Voltar ao catálogo

STARLINK-31896

AtivoComunicaçõesVLEO
NORAD 59851·PAYLOAD·🇺🇸 United States

Lançado May 23, 2024 de Cape Canaveral Space Force Station

Loading…

Próximas Passagens (próximas 24 horas)

TLE

AtualizadoSource: CelesTrak SupGP

Época: Sep 14, 2026, 21:25 UTC

1 59851C 24097S   26257.89284722  .00007229  00000+0  26191-3 0  2572
2 59851  43.0001 285.8266 0001488 270.1489  72.2193 15.27563256    14

Acompanhe STARLINK-31896 em tempo real com AllMySat

Download on the App Store